| time (UTC) | temp F | wind direction | speed knots | gust knots | rain 1hr in | rain 24hr in | rain mn in | humidity % | barometer mb |
| 20260504190617 | 71 | 266 | 8.7 | 10.4 | 0.00 | 0.00 | 0.00 | 41 | 1005.8 |
| 20260504185617 | 70 | 243 | 9.6 | 12.2 | 0.00 | 0.00 | 0.00 | 44 | 1005.7 |
| 20260504184617 | 71 | 262 | 7.0 | 11.3 | 0.00 | 0.00 | 0.00 | 43 | 1006.0 |
| 20260504183617 | 71 | 254 | 8.7 | 10.4 | 0.00 | 0.00 | 0.00 | 44 | 1006.0 |
| 20260504182617 | 71 | 263 | 6.1 | 10.4 | 0.00 | 0.00 | 0.00 | 45 | 1006.1 |
| 20260504181617 | 71 | 251 | 10.4 | 13.9 | 0.00 | 0.01 | 0.00 | 44 | 1005.9 |
| 20260504180618 | 69 | 224 | 7.8 | 10.4 | 0.00 | 0.01 | 0.00 | 44 | 1006.0 |
| 20260504175618 | 70 | 243 | 7.8 | 10.4 | 0.00 | 0.01 | 0.00 | 46 | 1006.1 |
| 20260504174618 | 70 | 252 | 10.4 | 16.5 | 0.00 | 0.01 | 0.00 | 45 | 1006.1 |
| 20260504173638 | 70 | 265 | 7.8 | 10.4 | 0.00 | 0.01 | 0.00 | 46 | 1006.3 |
| 20260504172618 | 69 | 243 | 4.3 | 11.3 | 0.00 | 0.01 | 0.00 | 48 | 1006.3 |
| 20260504171618 | 69 | 266 | 7.8 | 9.6 | 0.00 | 0.01 | 0.00 | 48 | 1006.4 |
| 20260504170616 | 68 | 253 | 6.1 | 10.4 | 0.00 | 0.01 | 0.00 | 48 | 1006.6 |
| 20260504150618 | 62 | 218 | 9.6 | 12.2 | 0.00 | 0.01 | 0.00 | 52 | 1007.3 |
| 20260504140636 | 60 | 225 | 10.4 | 13.9 | 0.00 | 0.01 | 0.00 | 52 | 1007.5 |
| 20260504130617 | 56 | 234 | 9.6 | 14.8 | 0.00 | 0.01 | 0.00 | 55 | 1008.2 |
| 20260504110636 | 48 | 238 | 7.8 | 10.4 | 0.00 | 0.01 | 0.00 | 61 | 1008.5 |
| 20260504081617 | 48 | 223 | 3.5 | 6.1 | 0.00 | 0.01 | 0.00 | 60 | 1008.9 |
| 20260504080617 | 48 | 221 | 3.5 | 5.2 | 0.00 | 0.01 | 0.00 | 60 | 1009.1 |
| 20260504050617 | 50 | 244 | 5.2 | 7.0 | 0.00 | 0.01 | 0.00 | 56 | 1009.3 |
| 20260504045617 | 50 | 242 | 5.2 | 7.0 | 0.00 | 0.01 | 0.00 | 56 | 1009.4 |
| 20260504044657 | 49 | 238 | 5.2 | 7.0 | 0.00 | 0.01 | 0.00 | 56 | 1009.5 |
| 20260504043617 | 49 | 236 | 4.3 | 6.1 | 0.00 | 0.01 | 0.00 | 57 | 1009.6 |
| 20260504042619 | 49 | 238 | 4.3 | 6.1 | 0.00 | 0.01 | 0.00 | 56 | 1009.6 |
| 20260504041617 | 50 | 246 | 3.5 | 5.2 | 0.00 | 0.01 | 0.00 | 56 | 1009.7 |
| 20260504040618 | 51 | 239 | 2.6 | 3.5 | 0.00 | 0.01 | 0.00 | 54 | 1009.7 |
| 20260504035618 | 51 | 247 | 3.5 | 5.2 | 0.00 | 0.01 | 0.01 | 54 | 1009.7 |
| 20260504034639 | 52 | 264 | 2.6 | 3.5 | 0.00 | 0.01 | 0.01 | 53 | 1009.6 |
| 20260504033618 | 52 | 246 | 2.6 | 3.5 | 0.00 | 0.01 | 0.01 | 53 | 1009.6 |
| 20260504032616 | 52 | 268 | 2.6 | 2.6 | 0.00 | 0.01 | 0.01 | 54 | 1009.7 |
| 20260504031616 | 52 | 279 | 2.6 | 2.6 | 0.00 | 0.01 | 0.01 | 52 | 1009.8 |
| 20260504030616 | 52 | 225 | 2.6 | 3.5 | 0.00 | 0.01 | 0.01 | 53 | 1010.0 |
| 20260504025616 | 52 | 251 | 1.7 | 1.7 | 0.00 | 0.01 | 0.01 | 55 | 1010.1 |
| 20260504024616 | 52 | 266 | 1.7 | 2.6 | 0.00 | 0.01 | 0.01 | 54 | 1010.2 |
| 20260504023616 | 52 | 278 | 1.7 | 2.6 | 0.00 | 0.01 | 0.01 | 55 | 1010.2 |
| 20260504022617 | 53 | 269 | 0.9 | 1.7 | 0.00 | 0.01 | 0.01 | 52 | 1010.2 |
| 20260504021617 | 53 | 256 | 3.5 | 5.2 | 0.00 | 0.01 | 0.01 | 52 | 1010.1 |
| 20260504020637 | 54 | 234 | 3.5 | 5.2 | 0.00 | 0.01 | 0.01 | 51 | 1010.1 |
| 20260504015617 | 54 | 247 | 5.2 | 9.6 | 0.00 | 0.01 | 0.01 | 49 | 1010.1 |
| 20260504014617 | 54 | 241 | 6.1 | 9.6 | 0.00 | 0.01 | 0.01 | 48 | 1010.2 |
| 20260504013617 | 54 | 244 | 7.8 | 12.2 | 0.00 | 0.01 | 0.01 | 49 | 1010.1 |
| 20260504012618 | 54 | 261 | 2.6 | 6.1 | 0.00 | 0.01 | 0.01 | 48 | 1010.1 |
| 20260504011638 | 54 | 236 | 3.5 | 6.1 | 0.00 | 0.01 | 0.01 | 49 | 1010.1 |
| 20260504010638 | 54 | 206 | 1.7 | 2.6 | 0.00 | 0.01 | 0.01 | 49 | 1010.1 |
| 20260504005618 | 54 | 78 | 2.6 | 4.3 | 0.00 | 0.01 | 0.01 | 50 | 1010.0 |
| 20260504004639 | 54 | 234 | 5.2 | 8.7 | 0.00 | 0.01 | 0.01 | 49 | 1010.1 |
| 20260504003659 | 54 | 243 | 8.7 | 14.8 | 0.00 | 0.01 | 0.01 | 48 | 1009.9 |
| 20260504002616 | 53 | 244 | 3.5 | 6.1 | 0.00 | 0.01 | 0.01 | 48 | 1009.9 |
| 20260504001616 | 52 | 293 | 1.7 | 2.6 | 0.00 | 0.01 | 0.01 | 58 | 1010.0 |
| 20260504000616 | 53 | 266 | 1.7 | 1.7 | 0.00 | 0.01 | 0.01 | 54 | 1009.6 |
| 20260503235616 | 54 | 307 | 1.7 | 1.7 | 0.00 | 0.01 | 0.01 | 51 | 1009.5 |
| 20260503234617 | 54 | 32 | 0.9 | 2.6 | 0.00 | 0.01 | 0.01 | 51 | 1009.5 |
| 20260503233617 | 55 | 233 | 6.1 | 7.0 | 0.00 | 0.01 | 0.01 | 48 | 1009.5 |
| 20260503232617 | 55 | 246 | 4.3 | 7.8 | 0.00 | 0.01 | 0.01 | 49 | 1009.6 |
| 20260503231617 | 55 | 23 | 2.6 | 6.1 | 0.00 | 0.01 | 0.01 | 48 | 1009.6 |
| 20260503230617 | 55 | 244 | 11.3 | 13.9 | 0.00 | 0.01 | 0.01 | 46 | 1009.3 |
| 20260503225618 | 56 | 263 | 4.3 | 8.7 | 0.00 | 0.01 | 0.01 | 47 | 1009.3 |
| 20260503224617 | 56 | 249 | 4.3 | 8.7 | 0.00 | 0.01 | 0.01 | 46 | 1009.1 |
| 20260503223618 | 56 | 293 | 0.9 | 2.6 | 0.00 | 0.01 | 0.01 | 50 | 1009.1 |
| 20260503222638 | 56 | 261 | 2.6 | 5.2 | 0.00 | 0.01 | 0.01 | 49 | 1009.1 |
| 20260503221617 | 56 | 246 | 7.0 | 8.7 | 0.00 | 0.01 | 0.01 | 48 | 1009.0 |
| 20260503220618 | 56 | 244 | 5.2 | 7.0 | 0.00 | 0.01 | 0.01 | 49 | 1009.3 |
| 20260503215638 | 56 | 264 | 3.5 | 7.8 | 0.00 | 0.01 | 0.01 | 48 | 1009.3 |
| 20260503214616 | 56 | 254 | 5.2 | 7.0 | 0.00 | 0.01 | 0.01 | 49 | 1009.2 |
| 20260503213636 | 56 | 254 | 4.3 | 6.1 | 0.00 | 0.01 | 0.01 | 47 | 1009.2 |
| 20260503212616 | 57 | 223 | 3.5 | 7.0 | 0.00 | 0.01 | 0.01 | 46 | 1009.1 |
| 20260503211616 | 58 | 276 | 4.3 | 9.6 | 0.00 | 0.01 | 0.01 | 47 | 1009.1 |
| 20260503210616 | 58 | 286 | 3.5 | 7.8 | 0.00 | 0.01 | 0.01 | 45 | 1009.1 |
| 20260503205616 | 57 | 292 | 2.6 | 3.5 | 0.00 | 0.01 | 0.01 | 46 | 1009.3 |
| 20260503204637 | 56 | 273 | 3.5 | 6.1 | 0.00 | 0.01 | 0.01 | 46 | 1009.3 |
| 20260503203617 | 56 | 246 | 5.2 | 7.0 | 0.00 | 0.01 | 0.01 | 48 | 1009.5 |
| 20260503202617 | 56 | 241 | 3.5 | 6.1 | 0.00 | 0.01 | 0.01 | 47 | 1009.6 |
| 20260503201617 | 56 | 237 | 8.7 | 11.3 | 0.00 | 0.01 | 0.01 | 47 | 1009.7 |
| 20260503200617 | 57 | 348 | 1.7 | 3.5 | 0.00 | 0.01 | 0.01 | 47 | 1009.8 |
| 20260503195617 | 56 | 239 | 3.5 | 7.0 | 0.00 | 0.01 | 0.01 | 47 | 1009.9 |
| 20260503194617 | 56 | 316 | 1.7 | 4.3 | 0.00 | 0.01 | 0.01 | 47 | 1010.1 |
| 20260503193639 | 54 | 236 | 5.2 | 7.0 | 0.00 | 0.01 | 0.01 | 47 | 1010.3 |
| 20260503192618 | 54 | 274 | 2.6 | 6.1 | 0.00 | 0.01 | 0.01 | 47 | 1010.5 |
| 20260503191618 | 54 | 239 | 7.0 | 7.8 | 0.01 | 0.01 | 0.01 | 50 | 1010.7 |